| time (UTC) | temp F | wind direction | speed knots | gust knots | rain 1hr in | rain 24hr in | rain mn in | humidity % | barometer mb |
| 20260506111848 | 56 | 338 | 7.0 | 14.8 | 0.00 | 0.01 | 0.05 | 80 | 1016.1 |
| 20260506110945 | 56 | 336 | 3.5 | 12.2 | 0.00 | 0.01 | 0.05 | 79 | 1016.5 |
| 20260506110045 | 56 | 350 | 4.3 | 12.2 | 0.00 | 0.01 | 0.05 | 85 | 1016.8 |
| 20260506105145 | 56 | 352 | 4.3 | 12.2 | 0.00 | 0.01 | 0.05 | 86 | 1017.1 |
| 20260506104245 | 57 | 334 | 1.7 | 11.3 | 0.00 | 0.01 | 0.05 | 87 | 1016.9 |
| 20260506103345 | 56 | 356 | 3.5 | 12.2 | 0.00 | 0.01 | 0.05 | 90 | 1016.7 |
| 20260506102445 | 55 | 358 | 5.2 | 10.4 | 0.00 | 0.01 | 0.05 | 96 | 1017.0 |
| 20260506101545 | 55 | 21 | 3.5 | 9.6 | 0.00 | 0.01 | 0.05 | 97 | 1017.1 |
| 20260506100645 | 55 | 59 | 1.7 | 9.6 | 0.00 | 0.01 | 0.05 | 97 | 1016.8 |
| 20260506095745 | 55 | 86 | 5.2 | 7.0 | 0.00 | 0.01 | 0.05 | 96 | 1017.1 |
| 20260506094845 | 55 | 74 | 2.6 | 7.8 | 0.00 | 0.01 | 0.05 | 95 | 1017.2 |
| 20260506092145 | 57 | 359 | 5.2 | 8.7 | 0.00 | 0.01 | 0.05 | 88 | 1017.6 |
| 20260506091245 | 58 | 358 | 3.5 | 7.8 | 0.00 | 0.01 | 0.05 | 88 | 1017.6 |
| 20260506090345 | 58 | 356 | 2.6 | 7.0 | 0.00 | 0.01 | 0.05 | 88 | 1017.6 |
| 20260506085445 | 58 | 334 | 1.7 | 7.0 | 0.00 | 0.01 | 0.05 | 88 | 1017.7 |
| 20260506084545 | 58 | 4 | 0.9 | 4.3 | 0.00 | 0.01 | 0.05 | 89 | 1017.9 |
| 20260506083645 | 58 | 314 | 1.7 | 7.8 | 0.00 | 0.01 | 0.05 | 90 | 1017.7 |
| 20260506082745 | 56 | 43 | 4.3 | 7.8 | 0.00 | 0.01 | 0.05 | 95 | 1017.6 |
| 20260506080945 | 56 | 2 | 1.7 | 7.8 | 0.00 | 0.01 | 0.05 | 93 | 1017.7 |
| 20260506073345 | 56 | 71 | 2.6 | 5.2 | 0.00 | 0.01 | 0.04 | 88 | 1017.5 |
| 20260506072445 | 56 | 91 | 3.5 | 10.4 | 0.00 | 0.01 | 0.04 | 86 | 1017.3 |
| 20260506071545 | 57 | 85 | 4.3 | 9.6 | 0.00 | 0.01 | 0.04 | 85 | 1017.3 |
| 20260506070645 | 56 | 90 | 7.0 | 8.7 | 0.00 | 0.01 | 0.04 | 86 | 1017.5 |
| 20260506061245 | 56 | 345 | 4.3 | 9.6 | 0.00 | 0.01 | 0.04 | 83 | 1017.2 |
| 20260506060345 | 56 | 340 | 3.5 | 8.7 | 0.00 | 0.01 | 0.04 | 82 | 1017.5 |
| 20260506050944 | 55 | 332 | 3.5 | 9.6 | 0.00 | 0.01 | 0.04 | 86 | 1017.7 |
| 20260506044244 | 54 | 146 | 0.0 | 4.3 | 0.00 | 0.01 | 0.04 | 93 | 1017.9 |
| 20260506043346 | 53 | 147 | 2.6 | 6.1 | 0.00 | 0.01 | 0.04 | 96 | 1018.0 |
| 20260506042445 | 53 | 90 | 0.0 | 3.5 | 0.00 | 0.01 | 0.04 | 96 | 1018.4 |
| 20260506041545 | 53 | 72 | 1.7 | 5.2 | 0.00 | 0.01 | 0.04 | 96 | 1018.3 |
| 20260506040644 | 53 | 1 | 0.9 | 2.6 | 0.00 | 0.01 | 0.04 | 95 | 1018.5 |
| 20260506035745 | 53 | 40 | 0.9 | 2.6 | 0.00 | 0.01 | 0.04 | 94 | 1018.4 |
| 20260506034844 | 53 | 61 | 0.9 | 3.5 | 0.00 | 0.00 | 0.04 | 94 | 1018.3 |
| 20260506033945 | 53 | 90 | 0.0 | 1.7 | 0.00 | 0.00 | 0.04 | 92 | 1018.6 |
| 20260506033045 | 53 | 113 | 1.7 | 1.7 | 0.00 | 0.00 | 0.04 | 92 | 1018.4 |
| 20260506032144 | 53 | 119 | 0.9 | 2.6 | 0.00 | 0.00 | 0.04 | 91 | 1018.1 |
| 20260506031244 | 53 | 4 | 1.7 | 3.5 | 0.00 | 0.00 | 0.04 | 91 | 1018.3 |
| 20260506025444 | 53 | 73 | 0.0 | 1.7 | 0.00 | 0.00 | 0.00 | 91 | 1018.2 |
| 20260506024544 | 53 | 328 | 0.0 | 1.7 | 0.00 | 0.00 | 0.00 | 90 | 1018.2 |
| 20260506022744 | 53 | 82 | 0.9 | 3.5 | 0.00 | 0.00 | 0.00 | 89 | 1018.3 |
| 20260506021845 | 53 | 79 | 1.7 | 3.5 | 0.00 | 0.00 | 0.00 | 92 | 1018.0 |
| 20260506020945 | 53 | 1 | 0.0 | 1.7 | 0.00 | 0.00 | 0.00 | 92 | 1018.3 |
| 20260506020044 | 53 | 1 | 0.9 | 3.5 | 0.00 | 0.00 | 0.00 | 92 | 1018.3 |
| 20260506015144 | 53 | 27 | 0.9 | 4.3 | 0.00 | 0.00 | 0.00 | 90 | 1018.2 |
| 20260506014244 | 53 | 194 | 0.9 | 2.6 | 0.00 | 0.00 | 0.00 | 89 | 1018.2 |
| 20260506013344 | 53 | 208 | 0.9 | 2.6 | 0.00 | 0.00 | 0.00 | 88 | 1018.1 |
| 20260506011544 | 53 | 184 | 1.7 | 2.6 | 0.00 | 0.00 | 0.00 | 85 | 1018.4 |
| 20260506010644 | 53 | 191 | 0.0 | 3.5 | 0.00 | 0.00 | 0.00 | 84 | 1018.3 |
| 20260506005744 | 54 | 79 | 0.9 | 3.5 | 0.00 | 0.00 | 0.00 | 80 | 1018.0 |
| 20260506004844 | 54 | 1 | 0.0 | 3.5 | 0.00 | 0.00 | 0.00 | 80 | 1018.1 |
| 20260506003944 | 55 | 51 | 0.9 | 3.5 | 0.00 | 0.00 | 0.00 | 80 | 1018.5 |
| 20260506003045 | 54 | 82 | 1.7 | 7.0 | 0.00 | 0.00 | 0.00 | 80 | 1018.2 |
| 20260506002144 | 54 | 107 | 3.5 | 6.1 | 0.00 | 0.00 | 0.00 | 77 | 1018.3 |
| 20260506001245 | 56 | 23 | 1.7 | 3.5 | 0.00 | 0.00 | 0.00 | 75 | 1017.9 |
| 20260506000344 | 57 | 63 | 0.9 | 8.7 | 0.00 | 0.00 | 0.00 | 70 | 1018.0 |
| 20260505235444 | 57 | 76 | 3.5 | 8.7 | 0.00 | 0.00 | 0.00 | 66 | 1017.8 |
| 20260505234544 | 58 | 67 | 3.5 | 4.3 | 0.00 | 0.00 | 0.00 | 65 | 1018.0 |
| 20260505233644 | 59 | 18 | 0.9 | 3.5 | 0.00 | 0.00 | 0.00 | 69 | 1017.8 |
| 20260505232744 | 57 | 80 | 0.9 | 7.0 | 0.00 | 0.00 | 0.00 | 68 | 1018.1 |
| 20260505231844 | 57 | 81 | 0.0 | 6.1 | 0.00 | 0.00 | 0.00 | 83 | 1018.0 |
| 20260505230944 | 57 | 53 | 1.7 | 3.5 | 0.00 | 0.00 | 0.00 | 99 | 1018.4 |
| 20260505230044 | 53 | 85 | 0.9 | 4.3 | 0.00 | 0.00 | 0.00 | 98 | 1018.5 |
| 20260505225144 | 51 | 42 | 0.9 | 3.5 | 0.00 | 0.00 | 0.00 | 99 | 1018.6 |
| 20260505224244 | 51 | 77 | 0.0 | 3.5 | 0.00 | 0.00 | 0.00 | 99 | 1018.6 |
| 20260505223344 | 51 | 67 | 1.7 | 3.5 | 0.00 | 0.00 | 0.00 | 99 | 1018.2 |
| 20260505222445 | 49 | 2 | 1.7 | 3.5 | 0.00 | 0.00 | 0.00 | 99 | 1018.6 |
| 20260505221544 | 49 | 191 | 0.0 | 3.5 | 0.00 | 0.00 | 0.00 | 99 | 1018.8 |
| 20260505220644 | 47 | 252 | 0.0 | 3.5 | 0.00 | 0.00 | 0.00 | 99 | 1018.8 |
| 20260505215744 | 47 | 220 | 0.9 | 7.0 | 0.00 | 0.00 | 0.00 | 99 | 1018.9 |
| 20260505214844 | 46 | 324 | 1.7 | 3.5 | 0.00 | 0.00 | 0.00 | 97 | 1019.4 |
| 20260505213944 | 46 | 60 | 0.9 | 3.5 | 0.00 | 0.00 | 0.00 | 97 | 1019.1 |
| 20260505213045 | 46 | 67 | 1.7 | 3.5 | 0.00 | 0.00 | 0.00 | 97 | 1018.9 |
| 20260505212144 | 46 | 51 | 1.7 | 3.5 | 0.00 | 0.00 | 0.00 | 97 | 1018.9 |
| 20260505211244 | 44 | 212 | 1.7 | 2.6 | 0.00 | 0.00 | 0.00 | 98 | 1018.9 |
| 20260505210344 | 44 | 265 | 1.7 | 2.6 | 0.00 | 0.00 | 0.00 | 98 | 1018.7 |
| 20260505205444 | 44 | 97 | 0.0 | 3.5 | 0.00 | 0.00 | 0.00 | 98 | 1018.7 |
| 20260505204544 | 42 | 111 | 1.7 | 3.5 | 0.00 | 0.00 | 0.00 | 99 | 1018.8 |
| 20260505203644 | 42 | 113 | 1.7 | 3.5 | 0.00 | 0.00 | 0.00 | 99 | 1018.8 |
| 20260505202744 | 42 | 176 | 0.0 | 3.5 | 0.00 | 0.00 | 0.00 | 99 | 1019.0 |
| 20260505201844 | 42 | 264 | 1.7 | 3.5 | 0.00 | 0.00 | 0.00 | 99 | 1018.8 |
| 20260505200944 | 42 | 302 | 2.6 | 3.5 | 0.00 | 0.00 | 0.00 | 99 | 1018.6 |
| 20260505200044 | 42 | 322 | 0.0 | 1.7 | 0.00 | 0.00 | 0.00 | 99 | 1018.7 |
| 20260505194244 | 42 | 75 | 1.7 | 1.7 | 0.00 | 0.00 | 0.00 | 99 | 1018.6 |
| 20260505192444 | 42 | 181 | 0.0 | 1.7 | 0.00 | 0.00 | 0.00 | 99 | 1018.6 |
| 20260505190644 | 41 | 1 | 0.0 | 1.7 | 0.00 | 0.00 | 0.00 | 99 | 1018.7 |
| 20260505185744 | 41 | 181 | 0.0 | 1.7 | 0.00 | 0.00 | 0.00 | 99 | 1018.5 |
| 20260505184844 | 42 | 329 | 0.9 | 2.6 | 0.00 | 0.00 | 0.00 | 99 | 1018.7 |
| 20260505183944 | 42 | 233 | 0.0 | 3.5 | 0.00 | 0.00 | 0.00 | 99 | 1018.5 |
| 20260505183044 | 42 | 268 | 0.0 | 1.7 | 0.00 | 0.00 | 0.00 | 99 | 1018.4 |
| 20260505181243 | 42 | 219 | 0.0 | 1.7 | 0.00 | 0.00 | 0.00 | 99 | 1018.5 |
| 20260505180344 | 42 | 223 | 0.0 | 2.6 | 0.00 | 0.00 | 0.00 | 99 | 1018.7 |
| 20260505172745 | 43 | 198 | 0.0 | 1.7 | 0.00 | 0.00 | 0.00 | 98 | 1018.7 |
| 20260505170943 | 44 | 315 | 0.9 | 1.7 | 0.00 | 0.00 | 0.00 | 98 | 1018.9 |
| 20260505170043 | 44 | 344 | 0.9 | 1.7 | 0.00 | 0.00 | 0.00 | 98 | 1018.8 |
| 20260505164243 | 43 | 225 | 0.0 | 1.7 | 0.00 | 0.00 | 0.00 | 98 | 1019.0 |
| 20260505163343 | 43 | 220 | 0.0 | 2.6 | 0.00 | 0.00 | 0.00 | 98 | 1018.9 |
| 20260505161544 | 44 | 225 | 0.0 | 1.7 | 0.00 | 0.00 | 0.00 | 98 | 1018.9 |
| 20260505160643 | 44 | 230 | 0.9 | 2.6 | 0.00 | 0.00 | 0.00 | 98 | 1019.1 |
| 20260505153044 | 44 | 184 | 0.0 | 1.7 | 0.00 | 0.00 | 0.00 | 98 | 1019.7 |
| 20260505152144 | 44 | 343 | 0.0 | 1.7 | 0.00 | 0.00 | 0.00 | 98 | 1019.7 |
| 20260505151244 | 44 | 310 | 0.0 | 1.7 | 0.00 | 0.00 | 0.00 | 98 | 1019.9 |
| 20260505150344 | 44 | 288 | 0.0 | 1.7 | 0.00 | 0.00 | 0.00 | 98 | 1019.5 |
| 20260505124843 | 46 | 1 | 0.0 | 1.7 | 0.00 | 0.00 | 0.00 | 97 | 1021.0 |
| 20260505123943 | 46 | 300 | 0.0 | 1.7 | 0.00 | 0.00 | 0.00 | 97 | 1021.1 |
| 20260505122143 | 46 | 254 | 0.0 | 1.7 | 0.00 | 0.00 | 0.00 | 97 | 1021.3 |
| 20260505121243 | 46 | 230 | 0.9 | 1.7 | 0.00 | 0.00 | 0.00 | 97 | 1021.3 |
| 20260505120343 | 46 | 1 | 0.0 | 2.6 | 0.00 | 0.00 | 0.00 | 97 | 1021.3 |
| 20260505115443 | 46 | 19 | 0.0 | 2.6 | 0.00 | 0.00 | 0.00 | 97 | 1021.2 |
| 20260505114543 | 46 | 62 | 0.0 | 1.7 | 0.00 | 0.00 | 0.00 | 97 | 1021.5 |
| 20260505113643 | 45 | 181 | 0.0 | 1.7 | 0.00 | 0.00 | 0.00 | 97 | 1021.6 |